Helicity
114 72 79 58 43 61 35 53 47 39 32 36 39 35 38 39 36 27 26 29 22 23 29 30 29 31 32 35 37 39 40 37 37 39 36 34 34 33 30 25 14 -21 -42
111 43 57 45 67 66 49 57 52 45 56 45 45 44 47 52 48 38 29 33 25 29 30 36 35 37 36 38 39 40 40 40 37 36 38 38 38 38 34 25 -11 -40 -46
107 99 79 68 70 46 58 66 71 67 59 56 52 51 47 47 43 37 33 40 45 40 42 37 38 37 34 36 37 40 41 40 38 36 34 35 38 37 37 27 -32 -39 -42
82 99 97 72 74 78 76 75 69 65 58 50 49 45 40 37 33 33 40 37 36 44 47 54 51 44 41 37 37 35 33 38 45 45 40 35 34 35 34 24 -34 -38 -38
73 80 70 88 83 80 77 70 66 60 59 54 52 51 46 38 36 38 33 33 37 50 39 70 65 54 45 41 37 34 33 32 29 29 32 33 38 41 39 24 -30 -35 -33
84 90 82 98 82 99 88 85 75 65 57 52 55 49 43 40 42 39 31 36 40 47 44 46 68 64 73 57 48 42 39 36 33 31 31 33 31 31 34 -19 -3 -0 12
91 93 93 102 92 98 89 70 75 67 72 69 60 51 47 39 35 39 42 45 47 49 48 52 63 66 73 84 64 51 43 38 38 38 37 37 38 37 34 22 4 8 11
94 94 105 105 88 103 88 84 88 84 75 74 72 85 60 48 47 42 50 53 48 53 55 53 52 53 65 68 77 77 65 47 42 42 43 44 47 47 35 23 19 15 17
103 98 99 97 82 94 103 95 97 82 98 85 76 103 80 73 70 80 56 60 53 52 48 54 54 49 52 65 73 76 94 75 48 42 39 42 42 41 38 27 21 15 14
95 90 93 90 85 89 84 86 82 82 84 85 95 77 90 125 100 64 66 60 66 58 49 61 67 56 56 70 67 64 48 68 52 31 26 26 27 24 21 14 11 10 17
105 92 87 80 81 84 70 70 77 74 83 81 82 88 80 88 84 99 95 80 80 84 68 50 57 61 61 73 72 61 54 67 42 32 29 26 22 20 17 15 15 18 22
123 97 89 85 70 65 68 75 77 74 86 74 91 82 85 97 83 101 87 88 83 77 66 63 69 83 76 83 78 48 42 48 35 31 28 30 36 42 42 36 34 38 36
142 121 109 99 96 89 83 95 88 83 78 82 82 92 91 86 96 104 94 88 101 105 100 74 81 89 94 102 87 74 52 47 31 26 24 28 35 45 45 44 45 52 59
148 139 119 115 105 101 104 103 102 96 87 81 82 89 100 100 104 110 112 113 115 104 91 88 102 99 97 101 104 76 59 29 34 44 54 56 64 71 71 70 94 98 95
154 133 129 117 116 116 116 109 113 100 97 90 87 85 96 98 108 112 117 121 132 135 101 80 96 86 98 83 65 56 52 47 60 63 78 77 80 88 108 117 112 103 107
218 170 134 115 126 112 117 110 113 95 92 97 93 86 91 99 98 115 129 137 141 133 128 111 107 79 67 69 58 59 53 47 57 70 55 60 70 94 132 117 102 114 132
253 234 175 151 106 112 106 97 97 99 90 101 107 98 93 105 122 133 139 135 130 132 148 105 93 67 61 69 53 69 79 72 84 112 96 115 86 113 180 127 107 140 160
247 251 230 157 129 112 143 103 101 105 101 100 117 123 109 132 120 128 141 125 132 131 160 147 100 94 71 54 75 66 79 122 138 161 131 78 112 168 150 119 117 127 156
210 157 156 101 65 151 197 115 89 83 110 105 124 129 114 130 119 138 140 158 169 163 160 215 236 182 126 100 114 110 94 140 160 138 85 134 177 131 101 109 124 145 183
215 149 133 127 83 47 51 59 86 119 123 130 137 150 131 144 141 141 163 168 191 189 199 217 203 191 190 173 127 111 104 99 99 105 137 159 96 82 62 66 108 183 162
179 125 119 79 53 60 85 128 137 144 153 170 191 190 197 207 235 225 233 289 292 248 241 224 213 201 177 201 175 165 130 143 135 159 159 94 88 98 101 133 153 154 126
162 151 164 153 179 214 195 123 183 204 214 201 220 312 318 335 352 404 434 481 332 235 219 252 227 206 178 189 184 150 141 148 104 168 118 120 127 131 148 135 152 140 177
195 188 202 215 235 282 275 231 231 265 272 275 311 329 338 342 347 357 361 432 333 330 354 263 227 248 198 213 179 150 160 160 131 107 102 93 107 146 125 142 109 119 160
239 232 259 302 347 313 284 274 283 320 379 417 390 389 378 384 404 351 348 283 285 317 266 323 367 222 316 303 222 192 168 125 111 91 117 101 120 114 126 97 23 116 137
352 328 323 328 343 359 315 325 355 382 399 416 413 412 392 416 395 390 279 248 289 188 253 133 185 208 218 256 209 155 161 160 112 111 128 128 117 115 57 -0 57 100 89
399 413 444 409 375 417 381 374 358 356 394 444 453 445 399 357 334 327 329 284 228 164 179 228 241 214 222 195 207 181 149 140 116 84 105 150 121 59 28 6 89 59 70
Wind_Speed
7 8 10 5 10 8 11 12 11 9 10 12 14 15 17 19 21 23 24 25 27 28 29 30 30 31 32 33 34 35 36 37 38 37 37 37 37 38 40 42 45 49 48
10 9 8 8 10 12 11 11 9 10 11 12 13 15 17 19 20 21 21 21 24 26 25 26 27 28 29 30 32 33 34 34 34 35 35 35 34 35 37 42 52 53 52
8 15 9 14 11 10 7 9 9 10 12 14 16 18 19 19 21 20 20 20 19 21 23 24 25 26 28 30 29 29 29 30 31 32 33 34 34 34 35 43 58 57 58
8 10 14 15 14 13 13 12 11 11 11 14 15 18 19 18 20 20 21 22 22 21 18 17 22 26 28 27 26 27 27 27 27 29 32 34 34 33 32 44 62 63 63
13 9 17 14 12 16 14 11 11 11 13 16 19 21 21 22 22 24 24 23 23 24 22 16 18 21 21 21 22 22 22 23 24 26 29 31 33 32 31 44 65 67 68
18 18 17 13 13 17 15 15 12 15 17 20 22 24 24 26 28 28 27 25 23 21 21 20 24 25 15 16 16 16 17 18 19 20 23 25 28 33 33 54 63 62 57
21 21 19 16 17 16 15 13 15 16 22 23 24 27 29 30 30 31 30 30 29 26 24 23 28 30 29 17 17 17 15 15 18 19 18 18 17 24 38 50 62 62 61
23 24 21 18 18 18 17 18 20 21 20 20 26 30 31 25 30 31 32 32 30 30 27 26 29 30 28 27 26 23 21 19 18 19 19 17 19 22 38 48 54 58 59
22 23 19 18 18 20 21 21 21 20 22 21 25 31 30 32 31 27 28 31 29 30 30 29 29 32 31 30 30 28 24 21 21 20 23 22 26 28 36 48 53 58 62
22 23 20 20 18 20 20 20 19 22 23 24 25 31 34 36 36 36 29 27 30 36 35 33 32 36 35 32 30 28 30 29 28 27 30 30 34 39 44 51 56 58 60
24 23 20 21 20 20 21 19 20 21 23 25 23 26 31 33 35 35 42 36 31 35 33 35 35 37 37 35 36 37 37 37 37 38 40 41 43 48 52 56 59 61 63
23 24 22 23 24 24 24 23 21 21 22 26 28 28 28 30 30 32 35 39 40 40 40 39 37 36 39 38 39 40 42 43 45 47 49 50 52 53 54 58 62 65 67
29 27 26 28 27 26 25 25 25 24 26 29 29 30 31 33 34 31 35 38 40 42 41 44 41 40 41 44 46 46 50 54 57 57 57 59 60 61 63 67 71 74 76
31 29 29 30 29 28 27 26 26 28 31 30 29 31 34 34 35 35 36 39 45 40 44 45 44 47 44 43 46 52 57 59 60 60 62 66 68 69 72 74 76 80 82
31 29 28 29 30 30 30 29 30 29 28 28 31 33 33 36 37 37 38 37 40 48 51 49 48 43 45 46 50 56 60 63 62 65 66 69 70 74 78 80 80 80 81
30 30 30 30 34 31 31 32 35 32 31 31 32 33 36 38 40 39 38 38 38 42 53 50 51 53 57 60 60 60 61 62 63 63 67 69 74 77 79 82 80 80 81
38 37 32 39 39 36 35 29 35 31 32 27 27 37 36 34 36 37 36 37 38 40 47 57 59 61 61 65 64 63 64 65 62 67 69 75 79 80 80 80 80 81 81
40 41 41 39 40 39 34 37 39 39 34 32 29 34 38 39 38 39 38 39 41 46 49 55 62 64 65 63 63 67 68 64 64 69 73 80 79 78 78 79 80 79 79
39 41 28 36 32 30 32 28 28 29 32 35 35 37 37 37 41 44 43 45 49 50 51 58 62 63 63 66 60 61 65 67 69 71 73 72 77 76 80 77 74 74 79
41 40 32 30 30 29 29 27 29 32 34 37 43 46 46 44 42 44 47 51 54 56 54 61 66 58 60 59 66 72 72 70 76 72 67 72 72 77 73 73 71 79 89
41 38 36 32 32 30 32 36 35 35 37 42 43 43 45 48 51 53 55 54 53 56 52 58 62 63 65 65 68 66 72 75 77 66 76 74 77 73 72 72 76 88 83
39 37 36 34 36 40 35 34 35 39 43 45 48 50 50 52 54 54 52 53 62 63 56 60 61 61 65 62 63 70 75 82 82 64 81 79 73 75 74 76 86 79 76
37 37 38 38 40 42 44 43 44 46 47 49 49 47 48 49 49 52 52 52 54 53 54 55 58 57 62 64 66 71 72 74 74 76 80 79 74 78 78 84 81 70 79
41 42 42 41 42 43 41 41 41 42 44 45 45 43 45 48 51 52 52 52 50 53 52 56 53 59 61 62 63 65 67 69 70 71 71 83 80 85 86 81 73 71 84
42 42 42 41 40 39 38 37 39 39 41 42 42 41 42 44 46 46 50 50 51 49 52 49 51 59 57 56 58 61 66 76 78 72 71 78 81 93 84 75 68 78 89
46 43 42 40 38 37 38 39 39 38 41 41 41 39 39 39 44 48 50 51 50 55 59 57 52 53 55 57 58 59 63 73 76 80 68 88 86 87 91 71 81 83 83
Wind_Direction
269 266 283 300 286 290 282 294 324 356 10 13 353 353 1 8 18 29 37 37 39 42 38 37 35 33 30 28 25 22 20 17 18 19 18 18 16 13 10 4 352 322 304
261 268 267 278 283 279 289 302 329 339 344 353 353 339 342 348 360 9 27 37 19 20 32 31 30 29 26 21 18 16 15 15 13 12 12 11 11 8 5 353 322 298 295
258 270 266 274 283 279 297 308 319 331 335 336 329 325 327 336 340 351 2 18 28 24 20 22 21 16 11 9 11 12 11 9 6 4 2 1 2 0 358 345 300 291 289
248 256 265 270 277 280 283 295 303 313 322 321 321 319 327 336 335 340 347 351 358 8 25 21 9 1 0 4 6 4 3 1 359 356 354 352 353 353 352 337 294 289 291
250 251 261 268 271 275 280 288 294 301 306 306 308 310 319 322 328 329 332 338 343 347 357 15 5 357 357 358 358 358 357 355 353 351 349 347 346 346 346 334 301 296 297
252 261 265 263 260 272 278 283 287 293 297 299 300 303 311 313 314 318 324 332 338 345 349 353 349 351 357 354 350 348 348 348 346 346 346 345 343 340 339 283 313 315 321
254 260 264 263 261 266 272 275 286 288 292 295 301 303 305 305 308 312 317 322 327 334 339 342 338 339 345 352 351 348 339 341 345 344 340 338 333 336 334 326 317 317 318
255 260 264 262 260 265 268 271 278 286 291 291 300 302 305 311 312 312 314 319 324 328 333 336 333 334 340 345 350 351 350 346 340 338 336 329 330 332 333 327 324 321 320
257 263 263 262 262 268 267 270 276 281 288 292 294 300 304 304 314 322 321 324 329 333 333 334 334 332 335 339 343 346 349 349 346 341 340 334 336 334 332 329 325 322 320
254 258 260 264 264 270 270 269 273 279 286 290 296 294 297 304 309 313 324 327 323 324 326 330 334 330 331 337 342 344 346 348 350 348 346 343 340 337 334 330 326 324 322
252 254 257 262 265 270 274 273 273 275 283 291 295 302 296 299 303 307 310 320 325 325 326 327 330 329 329 333 337 339 342 345 346 345 343 340 337 334 331 329 327 325 324
248 250 255 261 266 269 272 273 275 278 282 288 294 295 297 302 302 304 308 313 316 319 320 322 325 327 326 328 331 333 336 338 339 338 337 335 333 331 329 327 326 324 322
251 250 252 258 264 267 270 272 274 279 281 286 288 290 293 296 301 305 308 311 314 320 322 321 322 325 326 325 327 329 330 330 331 332 332 331 330 329 327 325 324 323 321
253 253 253 258 261 265 268 272 277 280 283 285 286 288 292 294 297 299 303 308 310 313 317 317 322 323 324 326 326 326 327 327 328 329 329 329 328 327 326 325 324 323 322
254 255 253 254 258 262 266 270 274 277 281 285 287 288 290 294 296 297 299 301 305 311 312 314 317 324 323 324 325 325 326 326 326 327 328 329 328 326 326 325 324 325 324
254 257 259 257 259 260 264 266 272 276 278 283 287 290 291 293 295 296 297 299 300 303 307 312 313 315 317 318 320 322 324 325 325 327 329 330 329 327 326 325 325 325 325
253 264 263 264 261 261 263 260 268 271 274 279 285 289 291 294 296 296 297 298 299 301 303 308 309 311 313 315 316 319 322 322 325 328 328 328 328 327 327 326 326 326 326
254 265 262 255 257 264 262 265 266 271 275 278 281 289 291 293 291 293 294 293 296 300 301 302 308 310 311 313 316 318 319 323 325 326 325 326 327 329 329 329 328 328 329
259 264 253 249 242 238 252 240 245 260 272 277 283 287 291 291 293 294 293 294 297 299 300 302 303 309 310 310 317 322 320 322 323 325 325 329 328 329 331 331 331 331 331
256 261 253 251 246 249 251 251 258 270 275 280 285 288 291 292 292 294 294 294 295 297 301 300 303 309 313 316 316 316 317 320 321 325 327 329 331 331 332 332 333 332 329
259 254 257 252 257 255 261 266 270 270 275 282 286 289 291 293 295 295 295 296 300 293 300 301 303 307 310 313 314 318 318 320 322 326 325 328 329 332 333 334 332 331 332
259 256 247 247 252 264 261 268 271 275 280 283 286 291 295 298 300 302 303 305 303 298 300 302 304 308 310 313 317 318 318 319 319 328 325 326 331 330 332 332 331 333 335
253 253 253 256 261 270 271 270 274 281 284 287 289 292 296 302 304 306 308 310 311 309 309 310 310 312 311 315 318 318 319 320 320 323 325 324 330 329 331 331 331 333 334
255 257 259 262 267 274 274 276 278 284 288 293 295 296 298 303 307 305 307 309 312 312 315 316 315 312 316 320 320 320 321 322 323 326 328 321 328 326 329 330 331 334 333
260 262 264 267 269 275 279 280 282 286 288 293 297 299 300 304 307 312 311 307 310 313 319 318 318 316 322 326 327 324 324 323 322 325 329 326 327 326 328 330 334 333 332
262 265 269 273 274 277 284 287 288 288 288 290 295 300 305 306 309 311 312 308 308 311 312 316 319 322 325 327 330 330 327 323 323 323 330 326 326 330 325 330 331 331 332